[[{"header":{"parameterUnit":"m.s-1","parameterCategory":1,"la1":30.2991,"la2":30.254,"lo1":-89.0895,"lo2":-89.0444,"dy":0.0017,"dx":0.0017,"nx":28,"ny":28,"refTime":"2025-02-26T03:00:00:Z","depth":0,"parameterNumber":2,"parameterNumberName":"U-component_of_WINDS"},"data":[0,0,0,0,0,0,0,0,0,0,0,0,0,0,0,0,0,0,0,0,0,0,0,0,0,0,0,0,0,0,0,0,0,0,0,0,0,0,0,0,0,0,0,0,0,0,0,0,0,0,0,0,0,0,0,0,0,0,-0.7331,-0.733,0,-0.7244,-0.7243,-0.7242,-0.7186,-0.7186,-0.7185,-0.7185,-0.7097,-0.7095,-0.7093,0,0,0,0,0,0,0,0,0,0,0,0,0,-0.7451,-0.7449,-0.7331,-0.733,-0.7329,-0.7244,-0.7243,-0.7242,-0.7186,-0.7186,-0.7185,-0.7185,-0.7098,-0.7095,-0.7093,0,0,0,0,0,0,0,0,0,0,0,0,0,-0.7385,-0.7448,-0.7331,-0.7291,-0.7286,-0.7244,-0.7243,-0.7241,-0.7186,-0.7186,-0.7185,-0.7185,-0.7098,-0.7096,-0.7093,-0.7084,0,0,-0.7083,-0.7082,0,0,0,0,0,0,0,0,-0.7389,-0.738,-0.7298,-0.7294,-0.7288,-0.7225,-0.7253,-0.7189,-0.7186,-0.7224,-0.7185,-0.7185,-0.714,-0.7134,-0.7119,-0.708,-0.7076,-0.7083,-0.7081,-0.708,-0.7079,0,0,0,0,0,0,0,-0.7393,-0.7384,-0.7297,-0.7297,-0.7291,-0.7278,-0.7268,-0.724,-0.7186,-0.7221,-0.7217,-0.7207,-0.7138,-0.7122,-0.7116,-0.7075,-0.7083,-0.708,-0.7078,-0.7077,-0.7026,-0.7026,0,0,0,0,0,0,-0.7404,-0.7388,-0.7299,-0.7294,-0.7338,-0.7276,-0.7265,-0.7246,-0.7186,-0.7177,-0.7208,-0.7205,-0.7127,-0.712,-0.7113,-0.7099,-0.708,-0.7077,-0.7075,-0.7025,-0.7026,-0.7026,0,0,0,0,0,0,-0.7407,-0.7397,-0.7303,-0.734,-0.7327,-0.7274,-0.7254,-0.7245,-0.7229,-0.7176,-0.7167,-0.7201,-0.7126,-0.7117,-0.7092,-0.7095,-0.7076,-0.7073,-0.7025,-0.7025,-0.7026,-0.7072,0,0,0,0,0,0,-0.741,-0.7398,-0.7394,-0.734,-0.7325,-0.7283,-0.7254,-0.7243,-0.7223,-0.7219,-0.7168,-0.7159,-0.7125,-0.7097,-0.7089,-0.7091,-0.707,-0.7024,-0.7025,-0.7026,-0.707,-0.7074,-0.7077,0,0,0,0,0,-0.7415,-0.741,-0.7394,-0.7383,-0.7319,-0.7283,-0.7275,-0.7236,-0.7224,-0.722,-0.7186,-0.716,-0.7096,-0.7094,-0.7085,-0.7086,-0.7024,-0.7025,-0.7026,-0.7068,-0.7073,-0.7077,0,0,0,0,0,0,-0.7465,-0.7402,-0.7383,-0.7361,-0.7328,-0.7274,-0.7267,-0.7243,-0.7212,-0.7209,-0.7163,-0.7152,-0.7132,-0.7106,-0.7105,-0.7075,-0.7057,-0.7056,-0.7092,-0.7097,-0.7101,-0.7107,-0.7068,0,0,0,0,0,-0.7474,-0.745,-0.7396,-0.7382,-0.7366,-0.732,-0.7303,-0.7276,-0.724,-0.7226,-0.719,-0.7157,-0.7129,-0.7111,-0.7083,-0.7066,-0.7054,-0.7062,-0.7066,-0.707,-0.707,-0.7059,-0.7062,-0.703,-0.703,-0.703,0,0,-0.7491,-0.7454,-0.7442,-0.7391,-0.7362,-0.7339,-0.7308,-0.7285,-0.7267,-0.7222,-0.7196,-0.7169,-0.7128,-0.7107,-0.7096,-0.7086,-0.7076,-0.7071,-0.7074,-0.7072,-0.7061,-0.7064,-0.7067,-0.703,-0.703,-0.703,0,0,-0.7511,-0.748,-0.7465,-0.7437,-0.7393,-0.7363,-0.7359,-0.7309,-0.7289,-0.7262,-0.7228,-0.7207,-0.716,-0.7133,-0.7113,-0.7124,-0.7099,-0.7116,-0.7136,-0.7127,-0.7129,-0.7131,-0.7135,-0.7137,-0.7116,-0.7116,-0.7116,0,-0.7538,-0.7501,-0.746,-0.7439,-0.7418,-0.7376,-0.7361,-0.7335,-0.7285,-0.7272,-0.7261,-0.7202,-0.7172,-0.7144,-0.7147,-0.7132,-0.7127,-0.7121,-0.7132,-0.7134,-0.7135,-0.7138,-0.714,-0.7118,-0.7118,-0.7118,-0.7118,0,-0.7537,-0.7512,-0.7505,-0.7457,-0.7435,-0.7417,-0.7374,-0.7357,-0.7333,-0.7304,-0.7277,-0.724,-0.7203,-0.7195,-0.7171,-0.7164,-0.7159,-0.7141,-0.7121,-0.7141,-0.7143,-0.7144,-0.7122,-0.7121,-0.712,-0.712,0,0,-0.7585,-0.7515,-0.7513,-0.7491,-0.7441,-0.7421,-0.7402,-0.7366,-0.7353,-0.732,-0.7303,-0.7265,-0.7248,-0.7225,-0.7198,-0.719,-0.7201,-0.7172,-0.7171,-0.7179,-0.7192,-0.7205,-0.7207,-0.7185,-0.7185,-0.7185,-0.7195,0,-0.7597,-0.7558,-0.7521,-0.7496,-0.7473,-0.7434,-0.7417,-0.7385,-0.7357,-0.7334,-0.7304,-0.7278,-0.7258,-0.7244,-0.7234,-0.7202,-0.7203,-0.7201,-0.7168,-0.7168,-0.7179,-0.7209,-0.7223,-0.7234,-0.7196,-0.7196,-0.7196,0,-0.7605,-0.7574,-0.7547,-0.7499,-0.7488,-0.7473,-0.7438,-0.7416,-0.7379,-0.736,-0.7336,-0.7307,-0.7285,-0.7269,-0.7239,-0.7238,-0.7223,-0.7205,-0.7205,-0.72,-0.7183,-0.7204,-0.7237,-0.7238,-0.7197,-0.7197,-0.7197,0,-0.7643,-0.7594,-0.7571,-0.7554,-0.7498,-0.7489,-0.7465,-0.7428,-0.7409,-0.7378,-0.7366,-0.7334,-0.7316,-0.7292,-0.7256,-0.7247,-0.7229,-0.721,-0.7213,-0.7214,-0.721,-0.7211,-0.724,-0.7202,-0.7202,-0.7201,-0.7201,0,-0.7659,-0.7644,-0.7588,-0.7574,-0.7556,-0.7514,-0.7498,-0.7471,-0.7439,-0.742,-0.7384,-0.7367,-0.732,-0.7298,-0.727,-0.7249,-0.7242,-0.7226,-0.7218,-0.7229,-0.7231,-0.7218,-0.7216,-0.7202,-0.7202,-0.7202,-0.7202,0,-0.7698,-0.7659,-0.7632,-0.7582,-0.7569,-0.7558,-0.7515,-0.7501,-0.7472,-0.7448,-0.744,-0.7395,-0.7367,-0.7329,-0.7289,-0.727,-0.7253,-0.7241,-0.7265,-0.7261,-0.7266,-0.7266,-0.7288,-0.7289,-0.725,-0.725,-0.7251,0,-0.7711,-0.7698,-0.7647,-0.7631,-0.7608,-0.7584,-0.7564,-0.7524,-0.7505,-0.7463,-0.7454,-0.7423,-0.7396,-0.7353,-0.7317,-0.7287,-0.7274,-0.7284,-0.7269,-0.728,-0.7274,-0.7275,-0.7274,-0.7287,-0.7288,-0.7288,-0.7289,0,-0.7738,-0.772,-0.7693,-0.7659,-0.7637,-0.7609,-0.7579,-0.7569,-0.7522,-0.7503,-0.7474,-0.7453,-0.7413,-0.7383,-0.7348,-0.7324,-0.7299,-0.7294,-0.7293,-0.7303,-0.7317,-0.731,-0.7275,-0.7293,-0.7293,-0.7293,-0.7292,-0.7292,-0.7764,-0.7751,-0.7713,-0.7684,-0.7657,-0.7631,-0.7615,-0.7584,-0.7559,-0.7522,-0.75,-0.7472,-0.7437,-0.7387,-0.7365,-0.7343,-0.7333,-0.7331,-0.7331,-0.7331,-0.7335,-0.7321,-0.7336,-0.7336,-0.7336,-0.7336,-0.7336,0,-0.7789,-0.7763,-0.7737,-0.7696,-0.7674,-0.7652,-0.7618,-0.7602,-0.7577,-0.7546,-0.752,-0.7487,-0.7458,-0.7421,-0.7389,-0.7379,-0.7367,-0.7372,-0.7372,-0.7368,-0.7345,-0.7349,-0.7383,-0.7383,-0.7383,-0.7383,-0.7383,-0.7383,-0.7799,-0.7776,-0.7754,-0.7718,-0.7692,-0.7664,-0.7646,-0.7622,-0.7597,-0.7561,-0.7537,-0.7513,-0.7479,-0.7445,-0.7418,-0.7408,-0.7398,-0.7407,-0.7394,-0.7373,-0.7369,-0.7365,-0.7368,-0.7405,-0.7405,-0.7417,-0.7417,-0.7417]},{"header":{"parameterUnit":"m.s-1","parameterCategory":1,"la1":30.2991,"la2":30.254,"lo1":-89.0895,"lo2":-89.0444,"dy":0.0017,"dx":0.0017,"nx":28,"ny":28,"refTime":"2025-02-26T03:00:00:Z","depth":0,"parameterNumber":3,"parameterNumberName":"V-component_of_WINDS"},"data":[0,0,0,0,0,0,0,0,0,0,0,0,0,0,0,0,0,0,0,0,0,0,0,0,0,0,0,0,0,0,0,0,0,0,0,0,0,0,0,0,0,0,0,0,0,0,0,0,0,0,0,0,0,0,0,0,0,0,2.3521,2.352,0,2.3495,2.3495,2.3494,2.3457,2.3456,2.3455,2.3455,2.3428,2.3428,2.3427,0,0,0,0,0,0,0,0,0,0,0,0,0,2.3536,2.3536,2.3521,2.352,2.352,2.3495,2.3495,2.3494,2.3457,2.3456,2.3455,2.3455,2.3428,2.3428,2.3427,0,0,0,0,0,0,0,0,0,0,0,0,0,2.3522,2.3536,2.3521,2.3498,2.3496,2.3495,2.3495,2.3494,2.3457,2.3456,2.3455,2.3454,2.3428,2.3428,2.3427,2.3446,0,0,2.3427,2.3427,0,0,0,0,0,0,0,0,2.3523,2.3522,2.3502,2.35,2.3497,2.3478,2.349,2.3478,2.3457,2.3472,2.3455,2.3454,2.3445,2.3443,2.3441,2.3445,2.3443,2.3427,2.3427,2.3427,2.3427,0,0,0,0,0,0,0,2.3524,2.3522,2.351,2.3502,2.3499,2.3489,2.3486,2.3488,2.3464,2.347,2.3468,2.3465,2.3444,2.3441,2.344,2.3443,2.3427,2.3427,2.3427,2.3427,2.3461,2.3462,0,0,0,0,0,0,2.3528,2.3524,2.3511,2.351,2.3508,2.349,2.3486,2.3485,2.3464,2.346,2.3466,2.3464,2.3442,2.344,2.3439,2.346,2.3427,2.3426,2.3426,2.346,2.3461,2.3463,0,0,0,0,0,0,2.3529,2.3528,2.3512,2.3516,2.3513,2.3491,2.349,2.3485,2.3483,2.3461,2.3456,2.3468,2.3441,2.3439,2.3445,2.3458,2.3426,2.3426,2.3459,2.3461,2.3462,2.3501,0,0,0,0,0,0,2.353,2.3528,2.3535,2.3516,2.3513,2.3519,2.349,2.3485,2.3483,2.3479,2.3461,2.3457,2.344,2.3445,2.3444,2.3457,2.3426,2.3458,2.346,2.3462,2.3499,2.3504,2.3509,0,0,0,0,0,2.353,2.3547,2.3536,2.3534,2.3522,2.352,2.3518,2.3498,2.3484,2.3491,2.3477,2.3458,2.3457,2.3446,2.3445,2.3458,2.3457,2.3459,2.3461,2.3497,2.3503,2.3508,0,0,0,0,0,0,2.3568,2.3544,2.3531,2.3542,2.3534,2.3514,2.3522,2.3505,2.35,2.3497,2.3472,2.3468,2.3477,2.3468,2.3456,2.3475,2.3454,2.3456,2.3481,2.3487,2.3492,2.3494,2.3426,0,0,0,0,0,2.3577,2.3578,2.3557,2.3569,2.3565,2.3544,2.3543,2.3528,2.3518,2.3514,2.35,2.349,2.3488,2.3487,2.3483,2.3497,2.3493,2.3505,2.351,2.3514,2.3517,2.3524,2.3529,2.347,2.347,2.347,0,0,2.3597,2.3584,2.3586,2.3576,2.3568,2.3569,2.3541,2.3544,2.3545,2.3514,2.3519,2.3508,2.3496,2.3506,2.351,2.3499,2.3532,2.3517,2.3521,2.3521,2.3527,2.3533,2.3538,2.3472,2.3471,2.3471,0,0,2.3634,2.3624,2.3633,2.3625,2.3613,2.3598,2.3601,2.3583,2.3575,2.358,2.3557,2.3557,2.3553,2.3545,2.3541,2.3575,2.3558,2.3574,2.36,2.3607,2.3612,2.3616,2.3629,2.3634,2.3577,2.3577,2.3577,0,2.366,2.3662,2.364,2.3644,2.3641,2.3613,2.3622,2.3615,2.3602,2.36,2.3588,2.3582,2.3572,2.358,2.3588,2.3585,2.3587,2.3577,2.3613,2.3617,2.362,2.3632,2.3637,2.3579,2.3579,2.3578,2.3578,0,2.3695,2.3696,2.3705,2.3693,2.3691,2.3697,2.3676,2.3676,2.3662,2.3649,2.3654,2.364,2.3634,2.3634,2.362,2.364,2.3634,2.3618,2.3596,2.3629,2.3639,2.3644,2.3582,2.3581,2.3581,2.358,0,0,2.3755,2.3732,2.3735,2.373,2.3714,2.3714,2.3719,2.3713,2.3714,2.3705,2.3709,2.3707,2.3692,2.3687,2.3671,2.3677,2.3706,2.366,2.366,2.367,2.3728,2.3741,2.3747,2.3694,2.3695,2.3696,2.373,0,2.379,2.3798,2.3778,2.3791,2.3792,2.3766,2.3771,2.3761,2.3749,2.3748,2.3735,2.3734,2.3714,2.3711,2.3715,2.3702,2.3718,2.3699,2.3698,2.3698,2.3703,2.3752,2.3766,2.3799,2.3734,2.3734,2.3735,0,2.3831,2.3825,2.3839,2.3822,2.3822,2.3826,2.3819,2.3819,2.3807,2.3798,2.3793,2.3775,2.3779,2.3757,2.3762,2.375,2.3748,2.3741,2.3742,2.3742,2.3719,2.3754,2.3809,2.3814,2.3741,2.3741,2.374,0,2.3875,2.387,2.3878,2.3874,2.3854,2.3858,2.385,2.3838,2.3836,2.3829,2.3828,2.3822,2.3819,2.3814,2.3795,2.3781,2.3803,2.378,2.3795,2.3796,2.3801,2.3802,2.3857,2.3799,2.3799,2.3799,2.3799,0,2.3916,2.3925,2.3897,2.3902,2.3912,2.3889,2.3899,2.3888,2.3877,2.3879,2.3856,2.3858,2.3832,2.3832,2.3817,2.3823,2.3822,2.3815,2.3811,2.3817,2.3818,2.3816,2.3814,2.38,2.38,2.38,2.38,0,2.3967,2.3948,2.3955,2.3936,2.3932,2.394,2.3923,2.3927,2.3913,2.3916,2.3915,2.3894,2.3892,2.3872,2.3866,2.3856,2.3869,2.386,2.3873,2.387,2.3887,2.3886,2.3944,2.3951,2.3888,2.3889,2.389,0,2.3995,2.4001,2.3983,2.3983,2.3976,2.3976,2.3974,2.3951,2.395,2.3938,2.3943,2.3939,2.3935,2.3933,2.3917,2.3912,2.3903,2.3924,2.3902,2.3909,2.3904,2.3905,2.3905,2.3929,2.393,2.393,2.3931,0,2.4046,2.4037,2.4034,2.4029,2.4027,2.4021,2.4014,2.4015,2.3991,2.399,2.3988,2.3985,2.3979,2.3975,2.3967,2.3959,2.3941,2.3938,2.3941,2.3948,2.3956,2.3953,2.3886,2.3936,2.3936,2.3935,2.3935,2.3935,2.4087,2.4092,2.408,2.4078,2.407,2.4064,2.4067,2.4054,2.4052,2.4045,2.4032,2.4032,2.402,2.4008,2.4001,2.4001,2.399,2.3995,2.3996,2.3998,2.4002,2.3955,2.3999,2.3999,2.3999,2.3998,2.3998,0,2.4138,2.4129,2.4127,2.4119,2.4117,2.41,2.4091,2.4091,2.4092,2.4083,2.4079,2.4077,2.4074,2.4057,2.4052,2.4055,2.4047,2.4054,2.4054,2.4053,2.4011,2.4009,2.4061,2.4061,2.4061,2.4061,2.4061,2.4061,2.4164,2.4172,2.4161,2.4164,2.4155,2.4155,2.4152,2.4146,2.4139,2.4137,2.4135,2.4124,2.4112,2.4106,2.4102,2.4097,2.4096,2.4107,2.41,2.4062,2.4056,2.405,2.4048,2.4107,2.4107,2.4141,2.4142,2.4142]}]]